Find OneWeb SL0056

NORAD ID: 45159 Int'l Des: 2020-008 Owner: ONEWEB Country: UK Constellation: oneweb operational
LEOCIRCULARPOLARONEWEB_TYPE

リアルタイム位置

3D地球を読み込み中...

OneWeb SL0056について

説明を読み込み中...

次回通過

Passes for default location (London). Set your location on the main map for personalized predictions.

高度履歴

Loading altitude history...

軌道要素

1 45159U 20008AE 26106.21406837 .00000616 00000-0 17297-2 0 9991
2 45159 87.8843 48.5925 0001697 79.8007 280.3311 13.10371569300064
Epoch: Apr 16, 2026 • Age: 8 hours

現在のステータス

高度 1234.3 km
速度 7.24 km/s
衛星直下点 87.63°N, 127.24°E
打ち上げ日 Feb 6, 2020
運用期間 6.1 years
タイプ internet

技術仕様

分類 Payload
質量 148.00 kg
乾燥質量 140.00 kg
総質量 148.00 kg
長さ 1.30 m
直径 1.00 m
スパン 5.00 m
形状 Trapezoid+2 pan
製造者 ONEWUS
バスタイプ ARROW
フェーズステータス In Orbit
所有者/国 ONEWEB/UK

Most Searched